[keps] orb07102.amsat
Ray Hoad
r.hoad at att.net
Thu Apr 12 19:35:50 PDT 2007
SB KEPS @ AMSAT $ORB07102.O
Orbital Elements 07102.OSCAR
HR AMSAT ORBITAL ELEMENTS FOR OSCAR SATELLITES
FROM WA5QGD FORT WORTH,TX April 12, 2007
Send Subscribe/unsubscribe to KEPS at
http://www.amsat.org/mailman/listinfo/keps
BID: ORB07102.O
TO ALL RADIO AMATEURS BT
Satellite: AO-07
Catalog number: 07530
Epoch time: 07101.18389491
Element set: 848
Inclination: 101.5221 deg
RA of node: 141.1463 deg
Eccentricity: 0.0012056
Arg of perigee: 027.4967 deg
Mean anomaly: 332.6740 deg
Mean motion: 12.53572781 rev/day
Decay rate: -2.8e-07 rev/day^2
Epoch rev: 48272
Checksum: 286
Satellite: AO-10
Catalog number: 14129
Epoch time: 07101.51481063
Element set: 0375
Inclination: 026.7147 deg
RA of node: 282.4986 deg
Eccentricity: 0.6056714
Arg of perigee: 013.1465 deg
Mean anomaly: 357.4315 deg
Mean motion: 02.05869490 rev/day
Decay rate: 1.04e-06 rev/day^2
Epoch rev: 17919
Checksum: 298
Satellite: UO-11
Catalog number: 14781
Epoch time: 07102.52291206
Element set: 345
Inclination: 098.1957 deg
RA of node: 123.9432 deg
Eccentricity: 0.0009647
Arg of perigee: 029.4523 deg
Mean anomaly: 330.7209 deg
Mean motion: 14.79540200 rev/day
Decay rate: 1.39e-06 rev/day^2
Epoch rev: 24002
Checksum: 273
Satellite: RS-10/11
Catalog number: 18129
Epoch time: 07102.52691907
Element set: 268
Inclination: 082.9220 deg
RA of node: 106.7564 deg
Eccentricity: 0.0012170
Arg of perigee: 350.6477 deg
Mean anomaly: 009.4447 deg
Mean motion: 13.72786115 rev/day
Decay rate: 1.9e-07 rev/day^2
Epoch rev: 99222
Checksum: 298
Satellite: RS-15
Catalog number: 23439
Epoch time: 07101.55259071
Element set: 0082
Inclination: 064.8135 deg
RA of node: 114.6822 deg
Eccentricity: 0.0161587
Arg of perigee: 202.6498 deg
Mean anomaly: 156.7236 deg
Mean motion: 11.27551986 rev/day
Decay rate: -3.9e-07 rev/day^2
Epoch rev: 50618
Checksum: 309
Satellite: FO-29
Catalog number: 24278
Epoch time: 07102.53269364
Element set: 477
Inclination: 098.5429 deg
RA of node: 071.0141 deg
Eccentricity: 0.0349885
Arg of perigee: 253.4112 deg
Mean anomaly: 102.8336 deg
Mean motion: 13.52928769 rev/day
Decay rate: -6.5e-07 rev/day^2
Epoch rev: 52602
Checksum: 319
Satellite: SO-33
Catalog number: 25509
Epoch time: 07101.71864611
Element set: 904
Inclination: 031.4308 deg
RA of node: 241.5467 deg
Eccentricity: 0.0355755
Arg of perigee: 206.2840 deg
Mean anomaly: 151.9333 deg
Mean motion: 14.28158418 rev/day
Decay rate: -6.8e-07 rev/day^2
Epoch rev: 44174
Checksum: 296
Satellite: AO-40
Catalog number: 26609
Epoch time: 07101.45772371
Element set: 862
Inclination: 005.0304 deg
RA of node: 157.0776 deg
Eccentricity: 0.7987550
Arg of perigee: 300.8972 deg
Mean anomaly: 004.7483 deg
Mean motion: 01.25586238 rev/day
Decay rate: 9.5e-07 rev/day^2
Epoch rev: 2960
Checksum: 311
Satellite: VO-52
Catalog number: 28650
Epoch time: 07101.37071430
Element set: 599
Inclination: 097.8344 deg
RA of node: 173.5718 deg
Eccentricity: 0.0028434
Arg of perigee: 110.7970 deg
Mean anomaly: 249.6347 deg
Mean motion: 14.81294742 rev/day
Decay rate: 5.03e-06 rev/day^2
Epoch rev: 10452
Checksum: 305
Satellite: PO-63
Catalog number: 29712
Epoch time: 07102.44732721
Element set: 265
Inclination: 097.9272 deg
RA of node: 162.5070 deg
Eccentricity: 0.0013916
Arg of perigee: 347.6617 deg
Mean anomaly: 012.4247 deg
Mean motion: 14.79629944 rev/day
Decay rate: 5.67e-06 rev/day^2
Epoch rev: 1361
Checksum: 308
/EX
SB KEPS @ AMSAT $ORB07102.D
Orbital Elements 07102.MICROS
HR AMSAT ORBITAL ELEMENTS FOR THE MICROSATS
FROM WA5QGD FORT WORTH,TX April 12, 2007
Send SUBSCRIBE KEPS/UNSUBSCRIBE KEPS to majordomo at amsat.org only
BID: ORB07102.D
TO ALL RADIO AMATEURS BT
Satellite: AO-16
Catalog number: 20439
Epoch time: 07101.56054533
Element set: 7
Inclination: 098.1950 deg
RA of node: 099.7937 deg
Eccentricity: 0.0011695
Arg of perigee: 029.3025 deg
Mean anomaly: 330.8814 deg
Mean motion: 14.31755525 rev/day
Decay rate: -1.4e-07 rev/day^2
Epoch rev: 89901
Checksum: 300
Satellite: LO-19
Catalog number: 20442
Epoch time: 07102.51852712
Element set: 935
Inclination: 098.1824 deg
RA of node: 110.1324 deg
Eccentricity: 0.0012501
Arg of perigee: 026.0315 deg
Mean anomaly: 334.1491 deg
Mean motion: 14.31996489 rev/day
Decay rate: -2.9e-07 rev/day^2
Epoch rev: 89929
Checksum: 289
Satellite: AO-27
Catalog number: 22825
Epoch time: 07101.47948309
Element set: 658
Inclination: 098.3258 deg
RA of node: 074.2899 deg
Eccentricity: 0.0009363
Arg of perigee: 097.8258 deg
Mean anomaly: 262.3987 deg
Mean motion: 14.29204403 rev/day
Decay rate: -3.4e-07 rev/day^2
Epoch rev: 70596
Checksum: 346
Satellite: IO-26
Catalog number: 22826
Epoch time: 07102.44824017
Element set: 355
Inclination: 098.3184 deg
RA of node: 076.3145 deg
Eccentricity: 0.0009809
Arg of perigee: 090.9814 deg
Mean anomaly: 269.2502 deg
Mean motion: 14.29450634 rev/day
Decay rate: 1.3e-07 rev/day^2
Epoch rev: 70618
Checksum: 298
Satellite: PO-28
Catalog number: 22829
Epoch time: 07101.52685569
Element set: 632
Inclination: 098.3078 deg
RA of node: 076.6106 deg
Eccentricity: 0.0010802
Arg of perigee: 070.2461 deg
Mean anomaly: 289.9885 deg
Mean motion: 14.30149850 rev/day
Decay rate: 3.8e-07 rev/day^2
Epoch rev: 70628
Checksum: 320
Satellite: GO-32
Catalog number: 25397
Epoch time: 07102.14097608
Element set: 274
Inclination: 098.4218 deg
RA of node: 152.2235 deg
Eccentricity: 0.0002072
Arg of perigee: 080.3891 deg
Mean anomaly: 279.7523 deg
Mean motion: 14.23123010 rev/day
Decay rate: -5.0e-07 rev/day^2
Epoch rev: 45476
Checksum: 276
Satellite: MO-46
Catalog number: 26548
Epoch time: 07102.37398918
Element set: 767
Inclination: 064.5571 deg
RA of node: 026.2647 deg
Eccentricity: 0.0023249
Arg of perigee: 206.1967 deg
Mean anomaly: 153.7984 deg
Mean motion: 14.83121281 rev/day
Decay rate: 9.0e-08 rev/day^2
Epoch rev: 35377
Checksum: 333
Satellite: NO-44
Catalog number: 26931
Epoch time: 07101.83039377
Element set: 560
Inclination: 067.0545 deg
RA of node: 318.4221 deg
Eccentricity: 0.0006924
Arg of perigee: 278.3138 deg
Mean anomaly: 081.7171 deg
Mean motion: 14.29478944 rev/day
Decay rate: -6.3e-07 rev/day^2
Epoch rev: 28861
Checksum: 313
Satellite: SO-50
Catalog number: 27607
Epoch time: 07101.57802804
Element set: 285
Inclination: 064.5581 deg
RA of node: 287.2656 deg
Eccentricity: 0.0046300
Arg of perigee: 020.1659 deg
Mean anomaly: 340.1263 deg
Mean motion: 14.71246334 rev/day
Decay rate: -5.0e-07 rev/day^2
Epoch rev: 23132
Checksum: 268
Satellite: CO-55
Catalog number: 27844
Epoch time: 07101.04836950
Element set: 0002
Inclination: 098.7199 deg
RA of node: 110.2640 deg
Eccentricity: 0.0009333
Arg of perigee: 289.6453 deg
Mean anomaly: 070.3718 deg
Mean motion: 14.20502923 rev/day
Decay rate: 6.0e-07 rev/day^2
Epoch rev: 19594
Checksum: 292
Satellite: CO-57
Catalog number: 27848
Epoch time: 07101.06040162
Element set: 0963
Inclination: 098.7200 deg
RA of node: 109.4964 deg
Eccentricity: 0.0009115
Arg of perigee: 291.0831 deg
Mean anomaly: 068.9372 deg
Mean motion: 14.20322918 rev/day
Decay rate: 2.4e-07 rev/day^2
Epoch rev: 19592
Checksum: 296
Satellite: AO-51
Catalog number: 28375
Epoch time: 07101.54159651
Element set: 788
Inclination: 098.1218 deg
RA of node: 144.2732 deg
Eccentricity: 0.0085127
Arg of perigee: 024.7333 deg
Mean anomaly: 335.7901 deg
Mean motion: 14.40562025 rev/day
Decay rate: 1.9e-07 rev/day^2
Epoch rev: 14611
Checksum: 287
Satellite: CO-56
Catalog number: 28941
Epoch time: 07102.31793858
Element set: 405
Inclination: 098.1397 deg
RA of node: 156.1810 deg
Eccentricity: 0.0236126
Arg of perigee: 145.7851 deg
Mean anomaly: 215.8866 deg
Mean motion: 15.37072860 rev/day
Decay rate: 2.5118e-04 rev/day^2
Epoch rev: 6330
Checksum: 320
Satellite: HO-59
Catalog number: 29484
Epoch time: 07101.56498801
Element set: 264
Inclination: 098.2958 deg
RA of node: 141.4425 deg
Eccentricity: 0.0228139
Arg of perigee: 143.9982 deg
Mean anomaly: 217.7003 deg
Mean motion: 15.45802798 rev/day
Decay rate: 4.2095e-04 rev/day^2
Epoch rev: 3076
Checksum: 339
Satellite: NO-60
Catalog number: 29661
Epoch time: 07102.35774123
Element set: 170
Inclination: 051.6386 deg
RA of node: 074.6680 deg
Eccentricity: 0.0011848
Arg of perigee: 084.3403 deg
Mean anomaly: 275.8939 deg
Mean motion: 15.98168784 rev/day
Decay rate: 1.24728e-03 rev/day^2
Epoch rev: 1786
Checksum: 337
Satellite: NO-61
Catalog number: 29664
Epoch time: 07102.41479308
Element set: 113
Inclination: 051.6339 deg
RA of node: 078.0430 deg
Eccentricity: 0.0016345
Arg of perigee: 083.6597 deg
Mean anomaly: 276.6272 deg
Mean motion: 15.87439621 rev/day
Decay rate: 2.5273e-04 rev/day^2
Epoch rev: 1769
Checksum: 319
/EX
SB KEPS @ AMSAT $ORB07102.W
Orbital Elements 07102.WEATHER
HR AMSAT ORBITAL ELEMENTS FOR WEATHER SATELLITES
FROM WA5QGD FORT WORTH,TX April 12, 2007
Send SUBSCRIBE KEPS/UNSUBSCRIBE KEPS to majordomo at amsat.org only
BID: ORB07102.W
TO ALL RADIO AMATEURS BT
Satellite: NOAA-10
Catalog number: 16969
Epoch time: 07102.47838220
Element set: 617
Inclination: 098.7509 deg
RA of node: 119.6106 deg
Eccentricity: 0.0012368
Arg of perigee: 003.7351 deg
Mean anomaly: 356.3925 deg
Mean motion: 14.27322173 rev/day
Decay rate: 5.5e-07 rev/day^2
Epoch rev: 6985
Checksum: 305
Satellite: NOAA-11
Catalog number: 19531
Epoch time: 07102.29243524
Element set: 616
Inclination: 098.8089 deg
RA of node: 192.2783 deg
Eccentricity: 0.0011300
Arg of perigee: 215.1425 deg
Mean anomaly: 144.9011 deg
Mean motion: 14.14842403 rev/day
Decay rate: 2.48e-06 rev/day^2
Epoch rev: 95683
Checksum: 280
Satellite: NOAA-12
Catalog number: 21263
Epoch time: 07102.11475147
Element set: 109
Inclination: 098.7525 deg
RA of node: 099.4690 deg
Eccentricity: 0.0012092
Arg of perigee: 301.7783 deg
Mean anomaly: 058.2227 deg
Mean motion: 14.25525668 rev/day
Decay rate: -1.22e-06 rev/day^2
Epoch rev: 82683
Checksum: 296
